COSMOS 249 DEB, 3912

Orbit data source: Space-Track

COSMOS 249 DEB, 3912 is space debris in LEO originally from a launch on Sun, 20 Oct 1968 UTC launched from the Tyuratam Missile And Space Complex (TTMTR). Debris objects in space refer to the collection of defunct objects orbiting the Earth. Examples of debris include non-operational satellites, rocket bodies, and fragments generated from explosions, collisions, or faulty payload assembly.

Loading next visibility...
Identifier
3912, 1968-091BQ
Orbit
LEO
Country
Flag of CISCIS
Related business
Manufacturer
Unknown
Mission
Spacecraft
Bus & Motor
Unknown
Mass
Unknown
Launch date (UTC)
1968-10-20 (58 years ago)
Launch vehicle
Unknown
Launch site
Tyuratam Missile And Space Complex (TTMTR)
Object type
Payload
Rocket body
Debris
Shape & HBR
Unknown shape, 0.1 m
Radar Cross Section
Medium (>0.1 m² and <1 m²)

Expand to show TLE details & history
Last TLE update: 1 day ago

TLE from 1 day ago
0 COSMOS 249 DEB
1 03912U 68091BQ  26174.23265017 -.00000104  00000-0 -27489-4 0  9996
2 03912  62.2456 259.9957 0793170  73.5230 295.1343 12.74307137646092
Epoch: 2026-06-23T05:35Z
TLE epoch observation values (Epoch: 2026-06-23T05:35:00.974Z)
Latitude
-0.00008°
Longitude
-95.16557°
Altitude
1,147.071 km
Speed
7.382 km/s
True Right ascension
17h 19m 58s
True Declination
0° 00' 00"
Sunlit
Object was in full shadow at epoch
Visualization orbit readout
Latitude
Unknown
Longitude
Unknown
Altitude
Unknown
Speed
Unknown
Apparent Right ascension
Unknown
Apparent Declination
Unknown
Sunlit
N/A
Visualization observer readout
Local Sidereal Time
22:41:39
Azimuth
Unknown
Elevation
Unknown
Doppler factor
Unknown
Orbital elements
Apogee altitude
1,977.485 km
Perigee altitude
749.407 km
Semi-major axis
7,741.583 km
Eccentricity
0.07932
Inclination
62.2456°
RAAN
259.9957°
Arg. of periapsis
73.523°
True anomaly
286.57685°
Mean anomaly
295.1343°
Eccentric anomaly
290.88845°
Mean motion
3.18639 °/min
Orbital period
112.98 mins
BSTAR
-0.000027489
Loading maneuver chart data...
Computing Atmospheric mass density...
Loading historical data...
Loading historical data...
Loading historical data...
Loading historical data...
Loading historical data...
Loading historical data...
Loading historical data...

Documentation

Showing up to 5 results
|